Regional Weather Roundup
Issued by NWS

Home | Current Version | Previous Version | Text Only | Print | Product List | Glossary On
Versions: 1 2 3 4 5 6 7 8 9 10 11 12 13 14 15 16 17 18 19 20 21 22 23 24 25 26 27 28 29 30 31 32 33 34 35 36 37 38 39 40 41 42 43 44 45 46 47 48 49 50
000
ASUS45 KABQ 301910
RWRNM
NEW MEXICO REGIONAL WEATHER ROUNDUP
NATIONAL WEATHER SERVICE ALBUQUERQUE NM
100 PM MDT SAT JUL 30 2016

NOTE: "FAIR" MEANS FEW OR NO CLOUDS BELOW 12,000 FEET AGL WITH NO
       SIGNIFICANT WEATHER OR OBSTRUCTIONS TO VISION.

      THIS PRODUCT IS RELEASED AS TWO VERSIONS.  ONE VERSION NEAR
      THE TOP OF THE HOUR CONTAINING PRELIMINARY DATA FROM ALBUQUERQUE
      AND OTHER STATIONS.  A FINAL VERSION WITH ADDITIONAL DATA IS
      ISSUED ABOUT 10 MINUTES AFTER THE HOUR.

NMZ501-503-504-510>518-302000-
NORTHWEST PLATEAU/NORTHCENTRAL MOUNTAINS

CITY           SKY/WX    TMP DP  RH WIND       PRES   REMARKS
FARMINGTON     FAIR      89  42  19 VRB3      30.09F
LOS ALAMOS     FAIR      80  46  29 S12G24    30.26F
SANTA FE       FAIR      86  47  25 SW12      30.21F
TAOS           FAIR      81  41  24 SW7         N/A
ANGEL FIRE     FAIR      77  41  27 W16       30.33F

$$
NMZ402-403-502-505>509-302000-
WESTCENTRAL MOUNTAINS/SOUTHWEST MOUNTAINS

CITY           SKY/WX    TMP DP  RH WIND       PRES   REMARKS
GALLUP         FAIR      87  43  21 SW9G18    30.19F
GRANTS         FAIR      89  40  17 SE9       30.20F
SILVER CITY    FAIR      85  53  33 SE9       30.16F

$$
NMZ407-409-411-412-302000-
SOUTHERN DESERTS

CITY           SKY/WX    TMP DP  RH WIND       PRES   REMARKS
LORDSBURG      FAIR      91  54  27 S7        30.06F
DEMING         FAIR      92  54  27 S8        30.07
LAS CRUCES     FAIR      89  49  26 S8        30.10F
HOLLOMAN AFB   FAIR      90  54  29 VRB2      30.04F
ALAMOGORDO     FAIR      90  54  29 SW6       30.07F
T OR C         FAIR      87  54  32 VRB3      30.10F

$$
NMZ519>523-302000-
CENTRAL VALLEYS/CENTRAL HIGHLANDS

CITY           SKY/WX    TMP DP  RH WIND       PRES   REMARKS
ALBUQUERQUE    FAIR      84  51  31 SW6       30.15F
DOUBLE EAGLE   MOSUNNY   86  50  28 SE9       30.19F
MORIARTY ARPT  FAIR      84  48  27 S5        30.21F
CLINES CORNERS FAIR      82  49  31 MISG      30.27F
BELEN          FAIR      89  45  21 S7        30.12F
SOCORRO        FAIR      91  49  23 S15G21    30.10F

$$
NMZ524>526-539-540-302000-
SOUTHCENTRAL MOUNTAINS

CITY           SKY/WX    TMP DP  RH WIND       PRES   REMARKS
RUIDOSO          N/A     81  46  30 E9G18     30.29F

$$
NMZ527>531-302000-
NORTHEAST HIGHLANDS/NORTHEAST PLAINS

CITY           SKY/WX    TMP DP  RH WIND       PRES   REMARKS
LAS VEGAS      FAIR      84  49  29 S21G29    30.21F
RATON          FAIR      82  51  34 VRB3      30.15F
CLAYTON        FAIR      85  62  46 S25G31    30.09F

$$
NMZ532>537-302000-
EASTCENTRAL PLAINS

CITY           SKY/WX    TMP DP  RH WIND       PRES   REMARKS
TUCUMCARI      FAIR      93  55  27 SW15G30   30.04F
CANNON AFB     FAIR      90  57  33 S16G22    30.10F
CLOVIS AIRPORT FAIR      88  59  37 SW14      30.10F

$$
NMZ028-029-538-302000-
SOUTHEAST PLAINS

CITY           SKY/WX    TMP DP  RH WIND       PRES   REMARKS
ROSWELL        FAIR      92  55  28 S13G20    30.05F
ARTESIA        FAIR      91  57  31 SE10G20   30.05F
CARLSBAD       FAIR      91  56  30 MISG      30.03F
HOBBS          MOSUNNY   90  55  31 SE12G20   30.09F


$$




USA.gov is the U.S. government's official web portal to all federal, state and local government web resources and services.